Weather History for KVVG - November, 2012

Change the Weather History Date:

Tuesday, November 6, 2012

  Actual Average (KMCO) Record (KMCO)
Temperature  
Mean Temperature 64 °F 70 °F  
Max Temperature 75 °F 80 °F 89 °F (1959)
Min Temperature 53 °F 61 °F 41 °F (1950)
Degree Days  
Heating Degree Days 1 1  
Month to date heating degree days 6  
Since 1 July heating degree days 11  
Cooling Degree Days 0 6  
Month to date cooling degree days 40  
Year to date cooling degree days 3247  
Growing Degree Days 14 (Base 50)    
Moisture  
Dew Point 55 °F    
Average Humidity 76    
Maximum Humidity 100    
Minimum Humidity 46    
Precipitation  
Precipitation 0.00 in 0.07 in 1.55 in (1958)
Month to date precipitation 0.46  
Year to date precipitation 46.44  
Sea Level Pressure  
Sea Level Pressure 29.89 in    
Wind  
Wind Speed 2 mph (West)    
Max Wind Speed 14 mph    
Max Gust Speed 22 mph    
Visibility 9 miles    
Events Rain    
T = Trace of Precipitation, MM = Missing Value Source: NWS Daily Summary

Daily Weather History Graph

Daily Weather History Graph

Search for Another Location

Airport or City:

Trip Planner

Search our weather history database for the weather conditions in past years. The results will help you decide how hot, cold, wet, or windy it might be!

Date:

Astronomy

Nov. 06, 2012 Rise Set
Actual Time 6:44 AM EST 5:38 PM EST
Civil Twilight 6:19 AM EST 6:02 PM EST
Nautical Twilight 5:51 AM EST 6:31 PM EST
Astronomical Twilight 5:23 AM EST 6:59 PM EST
Moon No Moon Rise 12:39 PM EST (11/6)
Length of Visible Light 11h 43m
Length of Day
10h 53m
Waning Gibbous, 53% of the Moon is Illuminated
Nov 6
Waning Gibbous
Nov 6
Last Quarter
Nov 13
New
Nov 20
First Quarter
Nov 28
Full

Hourly Weather History & Observations

Time (EST) Temp. Dew Point Humidity Pressure Visibility Wind Dir Wind Speed Gust Speed Precip Events Conditions
12:15 AM 59.0 °F 53.6 °F 82% 29.95 in 10.0 mi Calm Calm - N/A   Unknown
12:35 AM 59.0 °F 55.4 °F 88% 29.95 in 10.0 mi Calm Calm - N/A   Unknown
12:55 AM 59.0 °F 53.6 °F 82% 29.94 in 10.0 mi Calm Calm - N/A   Unknown
1:15 AM 57.2 °F 53.6 °F 88% 29.94 in 10.0 mi Calm Calm - N/A   Unknown
1:35 AM 57.2 °F 53.6 °F 88% 29.93 in 10.0 mi Calm Calm - N/A   Unknown
1:55 AM 55.4 °F 53.6 °F 94% 29.92 in 9.0 mi Calm Calm - N/A   Unknown
2:15 AM 55.4 °F 53.6 °F 94% 29.92 in 10.0 mi Calm Calm - N/A   Unknown
2:35 AM 55.4 °F 53.6 °F 94% 29.91 in 10.0 mi Calm Calm - N/A   Unknown
2:55 AM 55.4 °F 53.6 °F 94% 29.90 in 7.0 mi Calm Calm - N/A   Unknown
3:15 AM 55.4 °F 53.6 °F 94% 29.90 in 8.0 mi Calm Calm - N/A   Unknown
3:35 AM 55.4 °F 53.6 °F 94% 29.90 in 8.0 mi Calm Calm - N/A   Unknown
3:55 AM 55.4 °F 53.6 °F 94% 29.91 in 8.0 mi Calm Calm - N/A   Unknown
4:15 AM 53.6 °F 53.6 °F 100% 29.91 in 6.0 mi Calm Calm - N/A   Mist
4:35 AM 55.4 °F 53.6 °F 94% 29.92 in 8.0 mi Calm Calm - N/A   Unknown
4:55 AM 55.4 °F 53.6 °F 94% 29.91 in 8.0 mi Calm Calm - N/A   Unknown
5:15 AM 53.6 °F 53.6 °F 100% 29.90 in 6.0 mi Calm Calm - N/A   Mist
5:35 AM 55.4 °F 53.6 °F 94% 29.91 in 8.0 mi Calm Calm - N/A   Unknown
5:55 AM 55.4 °F 53.6 °F 94% 29.91 in 7.0 mi Calm Calm - N/A   Unknown
6:15 AM 55.4 °F 53.6 °F 94% 29.92 in 6.0 mi Calm Calm - N/A   Mist
6:35 AM 55.4 °F 53.6 °F 94% 29.93 in 9.0 mi Calm Calm - N/A   Unknown
6:55 AM 55.4 °F 53.6 °F 94% 29.93 in 8.0 mi Calm Calm - N/A   Unknown
7:15 AM 57.2 °F 55.4 °F 94% 29.94 in 7.0 mi Calm Calm - N/A   Unknown
7:35 AM 57.2 °F 55.4 °F 94% 29.95 in 8.0 mi Calm Calm - N/A   Unknown
7:55 AM 57.2 °F 55.4 °F 94% 29.96 in 7.0 mi Calm Calm - N/A   Light Drizzle
8:15 AM 59.0 °F 55.4 °F 88% 29.96 in 5.0 mi Calm Calm - N/A   Mist
8:35 AM 59.0 °F 57.2 °F 94% 29.96 in 5.0 mi Calm Calm - N/A   Mist
8:55 AM 60.8 °F 57.2 °F 88% 29.95 in 5.0 mi Calm Calm - N/A Rain Light Rain
9:15 AM 60.8 °F 57.2 °F 88% 29.94 in 6.0 mi Calm Calm - N/A   Mist
9:35 AM 60.8 °F 57.2 °F 88% 29.94 in 7.0 mi Calm Calm - N/A   Unknown
9:55 AM 62.6 °F 57.2 °F 82% 29.94 in 8.0 mi Calm Calm - N/A   Unknown
10:15 AM 64.4 °F 60.8 °F 88% 29.92 in 9.0 mi Calm Calm - N/A   Unknown
10:35 AM 66.2 °F 60.8 °F 83% 29.91 in 10.0 mi Calm Calm - N/A   Unknown
10:55 AM 69.8 °F 57.2 °F 64% 29.91 in 10.0 mi Calm Calm - N/A   Unknown
11:15 AM 69.8 °F 55.4 °F 60% 29.90 in 10.0 mi East 3.5 mph - N/A   Unknown
11:35 AM 71.6 °F 55.4 °F 57% 29.90 in 10.0 mi South 8.1 mph - N/A   Unknown
11:55 AM 71.6 °F 55.4 °F 57% 29.89 in 10.0 mi Calm Calm - N/A   Unknown
12:15 PM 73.4 °F 57.2 °F 57% 29.87 in 10.0 mi SW 5.8 mph - N/A   Unknown
12:35 PM 73.4 °F 57.2 °F 57% 29.86 in 10.0 mi SW 6.9 mph - N/A   Unknown
12:55 PM 75.2 °F 57.2 °F 53% 29.85 in 10.0 mi South 11.5 mph - N/A   Unknown
1:15 PM 73.4 °F 57.2 °F 57% 29.84 in 10.0 mi SW 9.2 mph - N/A   Unknown
1:35 PM 75.2 °F 59.0 °F 57% 29.83 in 10.0 mi WSW 11.5 mph 16.1 mph N/A   Unknown
1:55 PM 75.2 °F 59.0 °F 57% 29.83 in 10.0 mi West 9.2 mph - N/A   Unknown
2:15 PM 75.2 °F 57.2 °F 53% 29.81 in 10.0 mi West 9.2 mph - N/A   Unknown
2:35 PM 75.2 °F 59.0 °F 57% 29.82 in 10.0 mi WSW 5.8 mph - N/A   Unknown
2:55 PM 75.2 °F 57.2 °F 53% 29.82 in 10.0 mi West 13.8 mph 19.6 mph N/A   Unknown
3:15 PM 75.2 °F 57.2 °F 53% 29.82 in 10.0 mi WNW 10.4 mph 18.4 mph N/A   Unknown
3:35 PM 75.2 °F 53.6 °F 47% 29.82 in 10.0 mi WNW 13.8 mph 21.9 mph N/A   Unknown
3:55 PM 73.4 °F 53.6 °F 50% 29.82 in 10.0 mi WNW 10.4 mph - N/A   Unknown
4:15 PM 73.4 °F 53.6 °F 50% 29.82 in 10.0 mi WNW 13.8 mph 17.3 mph N/A   Unknown
4:35 PM 73.4 °F 51.8 °F 47% 29.83 in 10.0 mi West 12.7 mph 18.4 mph N/A   Unknown
5:15 PM 71.6 °F 50.0 °F 46% 29.83 in 10.0 mi West 8.1 mph - N/A   Unknown
5:35 PM 69.8 °F 51.8 °F 53% 29.84 in 10.0 mi Calm Calm - N/A   Unknown
5:55 PM 66.2 °F 51.8 °F 60% 29.84 in 10.0 mi West 4.6 mph - N/A   Unknown
6:15 PM 66.2 °F 51.8 °F 60% 29.85 in 10.0 mi West 6.9 mph - N/A   Unknown
6:35 PM 64.4 °F 51.8 °F 64% 29.85 in 10.0 mi Calm Calm - N/A   Unknown
6:55 PM 64.4 °F 51.8 °F 64% 29.86 in 10.0 mi Calm Calm - N/A   Unknown
7:15 PM 62.6 °F 51.8 °F 68% 29.87 in 10.0 mi Calm Calm - N/A   Unknown
7:35 PM 62.6 °F 51.8 °F 68% 29.88 in 10.0 mi Calm Calm - N/A   Unknown
7:55 PM 62.6 °F 51.8 °F 68% 29.89 in 10.0 mi Calm Calm - N/A   Unknown
8:15 PM 60.8 °F 51.8 °F 72% 29.89 in 10.0 mi Calm Calm - N/A   Unknown
8:35 PM 62.6 °F 53.6 °F 72% 29.89 in 10.0 mi NW 9.2 mph - N/A   Unknown
8:55 PM 62.6 °F 53.6 °F 72% 29.89 in 10.0 mi WNW 6.9 mph - N/A   Unknown
9:15 PM 60.8 °F 53.6 °F 77% 29.89 in 10.0 mi WNW 6.9 mph - N/A   Unknown
9:35 PM 60.8 °F 53.6 °F 77% 29.89 in 10.0 mi WNW 6.9 mph - N/A   Unknown
9:55 PM 60.8 °F 53.6 °F 77% 29.88 in 10.0 mi WNW 4.6 mph - N/A   Unknown
10:15 PM 59.0 °F 53.6 °F 82% 29.88 in 10.0 mi Calm Calm - N/A   Unknown
10:35 PM 57.2 °F 53.6 °F 88% 29.88 in 10.0 mi Calm Calm - N/A   Unknown
10:55 PM 57.2 °F 53.6 °F 88% 29.89 in 10.0 mi Calm Calm - N/A   Unknown
11:15 PM 57.2 °F 53.6 °F 88% 29.89 in 10.0 mi WNW 5.8 mph - N/A   Unknown
11:35 PM 57.2 °F 53.6 °F 88% 29.89 in 10.0 mi NW 9.2 mph - N/A   Unknown
11:55 PM 57.2 °F 51.8 °F 82% 29.88 in 10.0 mi NW 6.9 mph - N/A   Unknown